Regional Weather Roundup
Issued by NWS

Home | Current Version | Previous Version | Text Only | Print | Product List | Glossary Off
Versions: 1 2 3 4 5 6 7 8 9 10 11 12 13 14 15 16 17 18 19 20 21 22 23 24 25 26 27 28 29 30 31 32 33 34 35 36 37 38 39 40 41 42 43 44 45 46 47 48 49 50

000
ASUS43 KBIS 241020
RWRND

NORTH DAKOTA REGIONAL WEATHER ROUNDUP
NATIONAL WEATHER SERVICE BISMARCK ND
500 AM CDT THU APR 24 2014

NOTE: "FAIR" INDICATES FEW OR NO CLOUDS BELOW 12,000 FEET WITH NO
SIGNIFICANT WEATHER AND/OR OBSTRUCTIONS TO VISIBILITY.


NDZ001>003-009>011-017-241100-
NORTHWEST NORTH DAKOTA

CITY           SKY/WX    TMP DP  RH WIND       PRES   REMARKS
WILLISTON      CLEAR     35  25  66 W6        29.68S
MINOT          CLEAR     40  34  79 SW12      29.65F
MINOT AFB      PTCLDY    34  34 100 S6        29.65F
$$

NDZ018>021-031>035-040>046-241100-
SOUTHWEST NORTH DAKOTA

CITY           SKY/WX    TMP DP  RH WIND       PRES   REMARKS
BISMARCK       PTCLDY    37  32  82 W5        29.71F
DICKINSON      CLEAR     34  22  61 W10       29.73R
GARRISON         N/A     34  33  96 S5        29.69F
HETTINGER ARPT CLEAR     32  24  72 W9        29.79R
$$

NDZ004>008-012>016-024-026-027-054-241100-
NORTHEAST NORTH DAKOTA

CITY           SKY/WX    TMP DP  RH WIND       PRES   REMARKS
GRAND FORKS    CLOUDY    39  37  92 SE12      29.78F
GRND FRKS AFB  CLOUDY    38  38 100 SE13      29.77F
DEVILS LAKE    CLOUDY    37  34  87 SE5       29.72S
$$

NDZ022-023-025-028>030-036>039-047>053-241100-
SOUTHEAST NORTH DAKOTA

CITY           SKY/WX    TMP DP  RH WIND       PRES   REMARKS
FARGO          CLOUDY    42  38  85 SE8       29.76F
JAMESTOWN      CLOUDY    37  37 100 S3        29.71F FOG
$$




USA.gov is the U.S. government's official web portal to all federal, state and local government web resources and services.